This demonstration page uses our WeatherBlox Daily Observations layout. Learn more.

Left ArrowRight Arrow

36.17497, -115.13722

Hourly Observations for April 3, 2016

Temp ( °F °C ) Dew Point ( °F °C ) Humidity (%) Winds ( mph kmh ) Pressure ( in mb ) Visibility ( mi km ) Precip ( " mm )
12:53 am 00:53 Clear 62 16.7 30 -1.1 30 30 NW 5 7 30.09 1019 10 16.0934 0 0
1:53 am 01:53 Clear 59 15 30 -1.1 33 33 NNW 3 6 30.08 1019 10 16.0934 0 0
2:53 am 02:53 Clear 58 14.4 29 -1.7 33 33 NNW 3 6 30.08 1019 10 16.0934 0 0
3:53 am 03:53 Clear 56 13.3 27 -2.8 33 33 N 3 6 30.08 1019 10 16.0934 0 0
4:53 am 04:53 Clear 56 13.3 26 -3.3 32 32 N 8 13 30.08 1019 10 16.0934 0 0
5:53 am 05:53 Clear 57 13.9 26 -3.3 30 30 NW 6 9 30.09 1019 10 16.0934 0 0
6:53 am 06:53 Sunny 56 13.3 27 -2.8 33 33 NW 3 6 30.11 1020 10 16.0934 0 0
7:53 am 07:53 Sunny 62 16.7 28 -2.2 28 28 N 5 7 30.12 1020 10 16.0934 0 0
8:53 am 08:53 Sunny 67 19.4 24 -4.4 20 20 ESE 5 7 30.13 1020 10 16.0934 0 0
9:53 am 09:53 Sunny 69 20.6 24 -4.4 18 18 ESE 7 11 30.14 1021 10 16.0934 0 0
10:53 am 10:53 Sunny 72 22.2 23 -5 16 16 ESE 5 7 30.13 1020 10 16.0934 0 0
11:53 am 11:53 Sunny 75 23.9 24 -4.4 15 15 VRB 6 9 30.11 1020 10 16.0934 0 0
12:53 pm 12:53 Sunny 78 25.6 24 -4.4 13 13 SSE 7 11 30.07 1018 10 16.0934 0 0
1:53 pm 13:53 Sunny 81 27.2 21 -6.1 11 11 S 12 19 30.04 1017 10 16.0934 0 0
2:53 pm 14:53 Sunny 82 27.8 21 -6.1 10 10 SE 13 20 30.01 1016 10 16.0934 0 0
3:53 pm 15:53 Sunny 83 28.3 20 -6.7 10 10 ESE 10 17 29.98 1015 10 16.0934 0 0
4:53 pm 16:53 Sunny 83 28.3 19 -7.2 9 9 ESE 14 22 29.96 1015 10 16.0934 0 0
5:53 pm 17:53 Sunny 82 27.8 18 -7.8 9 9 SE 10 17 29.96 1015 10 16.0934 0 0
6:53 pm 18:53 Sunny 80 26.7 18 -7.8 10 10 ESE 10 17 29.96 1015 10 16.0934 0 0
7:53 pm 19:53 Clear 77 25 17 -8.3 10 10 ESE 9 15 29.97 1015 10 16.0934 0 0
8:53 pm 20:53 Clear 75 23.9 16 -8.9 10 10 E 9 15 29.98 1015 10 16.0934 0 0
9:53 pm 21:53 Clear 71 21.7 20 -6.7 14 14 WSW 8 13 30.01 1016 10 16.0934 0 0
10:53 pm 22:53 Clear 71 21.7 21 -6.1 15 15 SW 7 11 30.02 1017 10 16.0934 0 0
11:53 pm 23:53 Clear 68 20 23 -5 18 18 WNW 3 6 30.02 1017 10 16.0934 0 0

Powered by AerisWeather